This demonstration page uses our WeatherBlox Daily Observations layout. Learn more.

39.51506, -84.39828

Hourly Observations for November 11, 2019

Temp ( °F °C ) Dew Point ( °F °C ) Humidity (%) Winds ( mph kmh ) Pressure ( in mb ) Visibility ( mi km ) Precip ( " mm )
12:15 am 00:15 Cloudy 48 8.9 45 7 88 88 Calm 30.03 1017 10 16.0934 0 0
12:35 am 00:35 Cloudy 47 8.6 44 6.7 88 88 N 3 6 30.04 1017 10 16.0934 0 0
12:55 am 00:55 Cloudy 51 10.4 42 5.8 73 73 N 6 9 30.04 1017 10 16.0934 0 0
1:15 am 01:15 Cloudy 50 10.2 42 5.4 72 72 NNE 5 7 30.05 1018 10 16.0934 0 0
1:35 am 01:35 Cloudy 50 9.9 41 4.8 71 71 NNE 6 9 30.04 1017 10 16.0934 0 0
1:55 am 01:55 Cloudy 49 9.7 40 4.7 71 71 NE 5 7 30.05 1018 10 16.0934 0 0
2:15 am 02:15 Cloudy 49 9.4 40 4.6 72 72 NNE 6 9 30.06 1018 10 16.0934 0 0
2:35 am 02:35 Cloudy 49 9.2 40 4.7 74 74 NNE 5 7 30.05 1018 10 16.0934 0 0
2:55 am 02:55 Cloudy 48 9.1 40 4.6 74 74 NNE 3 6 30.05 1018 10 16.0934 0 0
3:15 am 03:15 Cloudy 48 9 41 5 76 76 Calm 30.04 1017 10 16.0934 0 0
3:35 am 03:35 Cloudy 48 9 41 5 76 76 Calm 30.04 1017 10 16.0934 0 0
3:55 am 03:55 Cloudy 48 8.8 40 4.7 76 76 Calm 30.04 1017 10 16.0934 0 0
4:15 am 04:15 Cloudy 48 8.7 40 4.7 76 76 Calm 30.04 1017 10 16.0934 0 0
4:35 am 04:35 Cloudy 48 8.9 41 4.9 76 76 Calm 30.04 1017 10 16.0934 0 0
4:55 am 04:55 Cloudy 47 8.5 41 5.1 79 79 Calm 30.04 1017 10 16.0934 0 0
5:15 am 05:15 Cloudy 47 8.6 41 4.9 78 78 Calm 30.04 1017 10 16.0934 0 0
5:35 am 05:35 Cloudy 47 8.6 41 4.8 77 77 NNW 5 7 30.05 1018 10 16.0934 0 0
5:55 am 05:55 Cloudy 47 8.5 41 4.8 78 78 Calm 30.05 1018 10 16.0934 0 0
6:15 am 06:15 Cloudy 47 8.5 40 4.6 77 77 NNE 3 6 30.05 1018 10 16.0934 0 0
6:35 am 06:35 Mostly Cloudy 46 7.9 40 4.6 80 80 ENE 7 11 30.03 1017 10 16.0934 0 0
6:55 am 06:55 Clear 45 7.2 40 4.3 82 82 NNE 5 7 30.04 1017 10 16.0934 0 0
7:15 am 07:15 Partly Cloudy 44 6.9 39 4 82 82 NNE 3 6 30.04 1017 10 16.0934 0 0
7:35 am 07:35 Cloudy 45 7 40 4.4 84 84 Calm 30.04 1017 10 16.0934 0 0
7:55 am 07:55 Cloudy 46 7.6 40 4.7 82 82 ENE 5 7 30.05 1017 10 16.0934 0 0
8:15 am 08:15 Cloudy 46 7.6 40 4.7 82 82 NE 3 6 30.04 1017 10 16.0934 0 0
8:35 am 08:35 Cloudy 46 8 41 4.8 80 80 ENE 3 6 30.02 1017 10 16.0934 0 0
8:55 am 08:55 Cloudy 48 9 42 5.3 78 78 Calm 30.03 1017 10 16.0934 0 0
9:15 am 09:15 Cloudy 49 9.4 42 5.4 76 76 Calm 30.02 1017 10 16.0934 0 0
9:35 am 09:35 Cloudy 49 9.6 42 5.4 75 75 Calm 30.01 1016 10 16.0934 0 0
9:55 am 09:55 Cloudy 50 10.2 42 5.6 73 73 Calm 30 1016 10 16.0934 0 0
10:15 am 10:15 Cloudy 52 11.1 42 5.6 69 69 S 3 6 29.99 1015 10 16.0934 0 0
10:35 am 10:35 Cloudy 53 11.6 42 5.3 66 66 SW 7 11 29.98 1015 10 16.0934 0 0
10:55 am 10:55 Cloudy 53 11.6 41 5.2 65 65 SW 7 11 29.98 1015 10 16.0934 0 0
11:15 am 11:15 Cloudy 53 11.6 42 5.3 66 66 SSW 7 11 29.97 1015 10 16.0934 0 0
11:35 am 11:35 Cloudy 54 12 42 5.6 65 65 Calm 29.96 1015 10 16.0934 0 0
11:55 am 11:55 Cloudy 55 12.7 42 5.4 61 61 WSW 8 13 29.94 1014 10 16.0934 0 0
12:15 pm 12:15 Partly Cloudy 57 13.9 43 5.9 59 59 WSW 8 13 29.94 1014 10 16.0934 0 0
12:35 pm 12:35 Cloudy 57 13.8 42 5.8 59 59 WSW 9 15 29.92 1013 10 16.0934 0 0
12:55 pm 12:55 Cloudy 56 13.5 43 5.9 60 60 W 6 9 29.92 1013 10 16.0934 0 0
1:15 pm 13:15 Cloudy 53 11.9 43 6.1 68 68 N 9 15 29.91 1013 10 16.0934 0 0
1:35 pm 13:35 Cloudy 52 11.2 43 6 71 71 N 13 20 29.93 1013 10 16.0934 0 0
1:55 pm 13:55 Cloudy 49 9.3 42 5.5 77 77 NNW 12 19 29.95 1014 7 11.26538 0 0
2:15 pm 14:15 Cloudy with Light Rain 45 7.2 41 4.9 85 85 N 10 17 29.97 1015 4 6.43736 0 0
2:35 pm 14:35 Cloudy with Light Drizzle 42 5.4 39 3.9 90 90 N 13 20 29.97 1015 10 16.0934 0 0
2:55 pm 14:55 Cloudy with Light Rain 39 3.7 36 2 89 89 NNW 18 30 30.01 1016 10 16.0934 0 0
3:15 pm 15:15 Cloudy with Light Rain 36 2.3 33 0.8 90 90 N 15 24 30.02 1017 7 11.26538 0 0
3:35 pm 15:35 Cloudy with Light Drizzle 35 1.7 33 0.6 93 93 N 14 22 30.02 1017 4 6.43736 0 0
3:55 pm 15:55 Cloudy 35 1.6 33 0.3 91 91 N 14 22 30.03 1017 10 16.0934 0 0
4:15 pm 16:15 Cloudy with Light Rain 34 1.1 32 -0.1 92 92 N 14 22 30.04 1017 3 4.82802 0 0
4:35 pm 16:35 Cloudy with Light Rain 34 1 32 -0.2 92 92 N 14 22 30.05 1018 4 6.43736 0 0
4:55 pm 16:55 Cloudy with Rain 33 0.8 32 -0.2 93 93 N 9 15 30.06 1018 3 4.82802 0 0
5:15 pm 17:15 Cloudy with Light Rain 33 0.7 31 -0.3 93 93 NNW 12 19 30.06 1018 3.5 5.63269 0 0
5:35 pm 17:35 Cloudy with Light Rain 33 0.5 31 -0.5 93 93 NNW 9 15 30.09 1019 3.5 5.63269 0 0
5:55 pm 17:55 Cloudy with Light Snow 33 0.3 31 -0.7 93 93 N 15 24 30.09 1019 2.5 4.02335 0 0
6:15 pm 18:15 Cloudy with Light Snow 32 0.1 31 -0.7 94 94 NNW 12 19 30.1 1019 2 3.21868 0 0
6:35 pm 18:35 Cloudy with Light Snow 31 -0.4 29 -1.4 93 93 NNW 12 19 30.1 1019 1.5 2.41401 0 0
6:55 pm 18:55 Cloudy with Light Snow 31 -0.7 29 -1.8 92 92 N 12 19 30.11 1020 1.75 2.816345 0 0
7:15 pm 19:15 Cloudy with Light Snow 30 -0.9 28 -2 92 92 N 8 13 30.12 1020 3.5 5.63269 0 0
7:35 pm 19:35 Cloudy with Light Snow 30 -0.9 28 -2.1 92 92 NNW 6 9 30.13 1020 5 8.0467 0 0
7:55 pm 19:55 Cloudy with Light Snow 31 -0.8 28 -2.1 91 91 NW 9 15 30.15 1021 3 4.82802 0 0
8:15 pm 20:15 Cloudy with Snow 29 -1.4 28 -2.4 93 93 NW 8 13 30.17 1022 1 1.60934 0 0
8:35 pm 20:35 Cloudy with Snow 29 -1.7 27 -2.8 92 92 NNW 12 19 30.16 1021 1.25 2.011675 0 0
8:55 pm 20:55 Cloudy with Light Snow 29 -1.9 26 -3.1 92 92 NNW 9 15 30.16 1021 1.75 2.816345 0 0
9:15 pm 21:15 Cloudy with Light Snow 28 -2.1 26 -3.1 93 93 NNW 9 15 30.17 1022 1.5 2.41401 0 0
9:35 pm 21:35 Cloudy with Light Snow 28 -2.1 26 -3.3 92 92 NNW 9 15 30.18 1022 2 3.21868 0 0
9:55 pm 21:55 Cloudy with Light Snow 28 -2.2 26 -3.5 91 91 NW 10 17 30.2 1023 2 3.21868 0 0
10:15 pm 22:15 Cloudy with Light Snow 28 -2.3 26 -3.6 91 91 NNW 10 17 30.2 1023 1.75 2.816345 0 0
10:35 pm 22:35 Cloudy with Light Snow 28 -2.3 25 -3.8 90 90 NW 12 19 30.2 1023 2.5 4.02335 0 0
10:55 pm 22:55 Cloudy with Light Snow 28 -2.4 25 -3.9 90 90 NNW 9 15 30.2 1023 3 4.82802 0 0
11:15 pm 23:15 Cloudy with Light Snow 28 -2.3 25 -4 88 88 NW 10 17 30.22 1023 3 4.82802 0 0
11:35 pm 23:35 Cloudy with Light Snow 28 -2.5 25 -3.7 92 92 NW 12 19 30.22 1023 1.5 2.41401 0 0
11:55 pm 23:55 Cloudy with Light Snow 28 -2.5 25 -4 90 90 NW 9 15 30.22 1023 2.5 4.02335 0 0

Powered by AerisWeather